DateTimeUTC,F1_A11,F1_S11,BsB_S11,BsG_S11,BsR_S11,BbsB_S11,BbsG_S11,BbsR_S11,BaB_A11,BaG_A11,BaR_A11,Tu_S11,T_S11,Uu_S11,U_S11,P_S11,T1_A11
2021-08-22T12:00:00Z,00000200,20000000,,,,,,,0000.35,-000.03,0000.16,19.8,26.2,09.6,06.5,0678.0,31.0
2021-08-22T12:01:00Z,00000200,20000000,,,,,,,-000.31,-000.03,0000.00,19.8,26.2,09.6,06.5,0678.1,31.1
2021-08-22T12:02:00Z,00000200,20000000,,,,,,,0000.09,0000.21,0000.11,19.8,26.2,09.6,06.5,0678.1,31.1
2021-08-22T12:03:00Z,00000200,60000000,,,,,,,0000.99,0000.96,0000.84,19.8,26.2,09.6,06.5,0678.0,31.0
2021-08-22T12:04:00Z,00000200,40000000,0006.54,0005.00,0003.60,0000.89,0000.86,0000.14,0001.42,0001.39,0001.06,19.9,26.1,09.5,06.6,0679.0,31.0
2021-08-22T12:05:00Z,00000200,00000000,0005.76,0005.21,0003.63,0000.77,0000.39,0000.48,0001.95,0001.11,0000.96,20.0,26.1,09.5,06.6,0679.0,31.0
2021-08-22T12:06:00Z,00000200,00000000,0006.74,0005.13,0003.78,0000.37,0000.48,0000.50,0001.36,0001.46,0001.07,20.0,26.1,09.6,06.6,0679.1,31.1
2021-08-22T12:07:00Z,00000200,00000000,0006.74,0005.16,0003.88,0000.69,0000.47,0000.54,0001.73,0001.74,0001.40,20.0,26.1,09.7,06.7,0679.1,31.0
2021-08-22T12:08:00Z,00000200,00000000,0005.98,0004.94,0003.53,0000.80,0000.84,0000.50,0000.86,0001.15,0001.32,20.0,26.1,09.8,06.8,0679.1,31.1
2021-08-22T12:09:00Z,00000200,00000000,0006.11,0004.80,0003.75,0001.10,0000.70,0000.65,0001.70,0001.47,0000.85,20.0,26.1,09.8,06.8,0679.1,31.0
2021-08-22T12:10:00Z,00000200,00000000,0006.15,0004.73,0003.61,0000.37,0000.49,0000.73,0001.08,0001.02,0000.69,20.0,26.1,09.8,06.8,0679.1,31.1
2021-08-22T12:11:00Z,00000200,00000000,0005.00,0004.79,0003.29,0000.63,0000.43,0000.50,0001.29,0001.02,0001.08,20.0,26.1,09.7,06.8,0679.1,31.0
2021-08-22T12:12:00Z,00000200,00000000,0005.10,0004.42,0003.62,0001.03,0000.56,0000.63,0000.99,0001.15,0000.91,20.0,26.1,09.5,06.6,0679.0,31.0
2021-08-22T12:13:00Z,00000200,00000000,0005.46,0004.88,0003.43,-000.10,0000.61,0000.58,0001.49,0001.42,0001.34,20.0,26.1,09.5,06.6,0679.0,31.1
2021-08-22T12:14:00Z,00000200,00000000,0005.65,0004.71,0003.32,0000.22,0000.53,0000.33,0001.57,0001.46,0000.72,20.0,26.1,09.5,06.6,0679.0,31.0
2021-08-22T12:15:00Z,00000200,00000000,0005.79,0004.53,0003.38,0000.24,0000.91,0000.44,0000.98,0000.86,0000.88,20.0,26.1,09.5,06.6,0679.0,31.1
2021-08-22T12:16:00Z,00000200,00000000,0006.51,0005.07,0003.36,0000.62,0000.70,0000.30,0001.63,0001.45,0001.00,20.0,26.1,09.6,06.7,0679.0,31.0
2021-08-22T12:17:00Z,00000200,00000000,0005.12,0004.35,0003.39,0000.56,0000.23,0000.23,0000.77,0000.93,0000.92,20.1,26.1,09.4,06.6,0679.0,31.0
2021-08-22T12:18:00Z,00000200,00000000,0005.29,0004.44,0003.14,0001.08,0000.66,0000.41,0000.91,0000.97,0000.68,20.1,26.1,09.2,06.4,0679.0,31.1
2021-08-22T12:19:00Z,00000200,00000000,0005.76,0004.74,0003.20,0001.02,0000.54,0000.39,0001.84,0001.65,0001.27,20.1,26.1,09.3,06.5,0679.0,31.0
2021-08-22T12:20:00Z,00000200,00000000,0005.09,0004.25,0003.70,0000.41,0000.50,0000.70,0001.19,0000.90,0000.78,20.1,26.1,09.5,06.6,0679.0,31.1
2021-08-22T12:21:00Z,00000200,00000000,0004.94,0004.75,0003.13,0000.59,0000.52,0000.28,0001.28,0001.50,0001.05,20.1,26.1,09.4,06.6,0679.0,31.0
2021-08-22T12:22:00Z,00000200,00000000,0005.00,0004.85,0003.30,0001.34,0000.42,0000.27,0001.18,0000.57,0000.86,20.1,26.1,09.2,06.4,0679.0,31.1
2021-08-22T12:23:00Z,00000200,00000000,0006.13,0004.41,0003.70,0000.33,0001.06,0000.40,0001.38,0001.15,0001.07,20.1,26.1,09.3,06.4,0679.0,31.0
2021-08-22T12:24:00Z,00000200,00000000,0005.29,0004.33,0003.36,0000.70,0000.42,0000.26,0001.18,0001.37,0001.05,20.1,26.1,09.3,06.4,0679.0,31.0
2021-08-22T12:25:00Z,00000200,00000000,0005.91,0004.59,0003.09,0001.04,0000.79,0000.32,0001.10,0001.31,0001.00,20.1,26.1,09.4,06.5,0679.0,31.1
2021-08-22T12:26:00Z,00000200,00000000,0005.30,0004.66,0003.08,0000.42,0000.66,0000.41,0001.76,0001.32,0000.85,20.1,26.1,09.4,06.6,0679.0,31.0
2021-08-22T12:27:00Z,00000200,00000000,0006.07,0004.98,0003.23,0000.36,0000.71,0000.74,0001.29,0001.06,0000.95,20.1,26.1,09.4,06.6,0679.0,31.0
2021-08-22T12:28:00Z,00000200,00000000,0005.79,0004.34,0003.34,0001.01,0000.42,0000.33,0000.94,0001.00,0001.15,20.1,26.1,09.3,06.4,0679.0,31.1
2021-08-22T12:29:00Z,00000200,00000000,0004.80,0004.21,0003.08,0000.64,0000.69,0000.57,0001.20,0001.01,0000.47,20.1,26.2,09.1,06.3,0679.0,31.0
2021-08-22T12:30:00Z,00000200,00000000,0005.86,0004.77,0003.29,0000.28,0000.38,0000.44,0001.15,0001.52,0001.01,20.1,26.2,09.1,06.3,0679.0,31.1
2021-08-22T12:31:00Z,00000200,00000000,0005.76,0004.39,0003.27,0000.79,0000.54,0000.43,0001.46,0001.16,0000.90,20.1,26.2,09.3,06.4,0679.0,31.1
2021-08-22T12:32:00Z,00000200,00000000,0005.37,0004.19,0002.73,0001.07,0000.67,0000.24,0001.14,0000.86,0001.07,20.2,26.2,08.9,06.2,0679.0,31.1
2021-08-22T12:33:00Z,00000200,00000000,0004.41,0003.67,0003.22,0000.62,0000.70,0000.34,0000.50,0000.35,0000.45,20.2,26.2,08.9,06.2,0679.0,31.1
2021-08-22T12:34:00Z,00000200,00000000,0004.11,0004.39,0002.90,0000.73,0000.41,0000.62,0001.36,0001.27,0000.99,20.2,26.2,08.8,06.1,0679.0,31.0
2021-08-22T12:35:00Z,00000200,00000000,0004.94,0003.87,0002.92,0000.66,0000.48,0000.41,0001.06,0001.15,0000.78,20.2,26.2,08.8,06.1,0678.9,31.1
2021-08-22T12:36:00Z,00000200,00000000,0003.96,0004.06,0002.82,0000.82,0000.48,0000.34,0001.15,0000.82,0000.74,20.2,26.2,09.0,06.2,0678.9,31.1
2021-08-22T12:37:00Z,00000200,00000000,0004.71,0003.91,0002.92,0000.83,0000.83,0000.42,0000.94,0001.45,0000.69,20.2,26.2,08.9,06.2,0678.9,31.0
2021-08-22T12:38:00Z,00000200,00000000,0004.75,0004.14,0002.99,0001.18,0000.63,0000.19,0001.22,0001.11,0001.24,20.2,26.2,08.9,06.2,0678.9,31.1
2021-08-22T12:39:00Z,00000200,00000000,0004.75,0003.97,0002.77,0000.31,0000.13,0000.42,0001.28,0000.79,0000.81,20.2,26.2,09.0,06.3,0678.9,31.1
2021-08-22T12:40:00Z,00000200,00000000,0004.63,0004.05,0002.62,0000.75,0000.50,0000.45,0000.78,0001.29,0001.08,20.2,26.2,09.0,06.3,0678.9,31.1
2021-08-22T12:41:00Z,00000200,00000000,0005.23,0003.82,0002.81,0000.47,0000.13,0000.23,0001.33,0001.15,0000.71,20.2,26.2,09.0,06.3,0678.9,31.1
2021-08-22T12:42:00Z,00000200,00000000,0004.72,0003.83,0002.45,0000.59,0000.56,0000.27,0000.95,0000.83,0000.57,20.2,26.2,09.1,06.3,0678.9,31.1
2021-08-22T12:43:00Z,00000200,00000000,0004.41,0003.05,0002.37,0001.04,0000.47,0000.39,0001.40,0000.97,0000.72,20.2,26.2,08.9,06.2,0678.9,31.1
2021-08-22T12:44:00Z,00000200,00000000,0004.27,0003.51,0002.58,0000.79,0000.62,0000.47,0000.62,0000.63,0000.89,20.2,26.2,08.9,06.2,0678.9,31.1
2021-08-22T12:45:00Z,00000200,00000000,0003.83,0003.30,0002.29,0000.72,0000.42,0000.34,0000.99,0000.63,0000.56,20.2,26.2,08.7,06.0,0678.8,31.1
2021-08-22T12:46:00Z,00000200,00000000,0004.03,0004.11,0002.32,0000.76,0000.53,0000.26,0000.94,0001.10,0000.39,20.2,26.2,08.8,06.1,0678.8,31.1
2021-08-22T12:47:00Z,00000200,00000000,0003.76,0003.97,0002.87,0000.54,0000.58,0000.10,0001.13,0001.36,0001.05,20.2,26.2,08.8,06.1,0678.8,31.1
2021-08-22T12:48:00Z,00000200,00000000,0004.51,0003.68,0002.55,0001.02,0000.22,0000.41,0000.83,0000.53,0000.28,20.2,26.2,08.7,06.0,0678.8,31.1
2021-08-22T12:49:00Z,00000200,00000000,0004.59,0003.48,0002.77,0000.91,0000.56,0000.38,0001.26,0001.31,0001.56,20.2,26.2,08.7,06.0,0678.8,31.1
2021-08-22T12:50:00Z,00000200,00000000,0004.83,0003.77,0002.69,0000.20,0000.47,0000.50,0000.96,0001.07,0000.67,20.2,26.2,08.8,06.1,0678.8,31.1
2021-08-22T12:51:00Z,00000200,00000000,0004.58,0003.56,0002.71,0000.61,0000.60,0000.42,0001.50,0000.96,0000.76,20.2,26.2,08.7,06.1,0678.7,31.1
2021-08-22T12:52:00Z,00000200,00000000,0004.85,0003.59,0002.67,0000.79,0000.46,0000.49,0000.51,0000.93,0001.02,20.2,26.2,08.7,06.1,0678.7,31.1
2021-08-22T12:53:00Z,00000200,00000000,0005.60,0004.16,0002.78,0000.56,0000.58,0000.44,0001.31,0000.81,0000.78,20.2,26.2,08.8,06.1,0678.7,31.1
2021-08-22T12:54:00Z,00000200,00000000,0005.03,0004.13,0002.51,0000.93,0000.75,0000.50,0001.05,0001.23,0000.99,20.2,26.2,08.8,06.1,0678.7,31.1
2021-08-22T12:55:00Z,00000200,00000000,0004.27,0003.88,0002.82,0000.59,0000.72,0000.45,0001.02,0000.74,0000.83,20.3,26.2,08.7,06.1,0678.7,31.1
2021-08-22T12:56:00Z,00000200,00000000,0005.03,0003.95,0002.95,0001.28,0000.35,0000.57,0001.43,0001.34,0000.61,20.3,26.2,08.8,06.1,0678.7,31.1
2021-08-22T12:57:00Z,00000200,40000000,,,,,,,0000.74,0000.24,0000.36,20.3,26.3,08.8,06.1,0678.8,31.1
2021-08-22T12:58:00Z,00000200,60000000,,,,,,,-000.39,0000.58,0000.23,20.1,26.4,09.0,06.1,0677.8,31.1
2021-08-22T12:59:00Z,00000200,20000000,,,,,,,-000.09,-000.54,-000.31,20.1,26.5,09.0,06.1,0677.7,31.1
